Lid_Strength_Index
17 17 18 18 19 19 19 18 18 18 18 18 18 18 18 18 18 18 18 18 18 18
18 18 18 19 19 19 18 18 18 18 18 18 18 18 18 18 19 18 18 18 18 18
19 18 18 18 18 18 19 18 19 19 19 19 19 19 19 19 18 18 18 17 18 18
18 18 18 18 18 18 18 18 18 18 19 19 19 19 19 19 19 19 19 18 18 18
19 19 19 18 18 18 18 18 19 19 19 19 19 19 19 19 19 19 20 19 19 19
19 19 19 19 18 18 19 19 19 18 19 19 19 19 19 19 19 19 19 19 19 19
19 19 19 19 19 19 19 19 19 19 19 19 19 18 18 18 19 19 19 18 18 19
19 19 19 19 19 19 19 19 19 19 19 19 19 18 19 18 19 19 19 19 18 17
19 19 19 19 19 19 19 19 19 19 19 19 18 16 15 15 18 18 18 19 18 17
19 19 19 19 19 20 20 20 20 20 19 19 19 15 14 14 16 16 17 17 16 16
20 20 20 20 20 20 20 20 20 20 20 19 19 15 14 14 15 16 16 16 16 16
21 22 22 22 22 21 20 21 20 19 20 20 19 15 14 14 16 16 16 15 15 15
22 22 23 22 22 22 21 20 19 19 19 17 18 15 13 13 14 15 14 14 13 10
23 23 22 22 22 22 22 20 20 19 18 18 16 16 12 11 12 13 13 13 12 11